This is the latest recevied weather packets stored in our database for station/object PY2UEP-1. If no packets are shown the sender has not sent any weather packets the latest 10 day(s).
| Time | Temp. | Humidity | Pressure | Rain* | Wind** | Luminosity | Snow |
|---|---|---|---|---|---|---|---|
| 1788043504 | 26.67° C | 61% | 1013.4 hPa | 0 mm | - | - | - |
| 1788043204 | 26.67° C | 62% | 1013.4 hPa | 0 mm | - | - | - |
| 1788042904 | 26.67° C | 62% | 1013.4 hPa | 0 mm | - | - | - |
| 1788042604 | 26.67° C | 60% | 1013.3 hPa | 0 mm | - | - | - |
| 1788042304 | 26.67° C | 60% | 1013.3 hPa | 0 mm | - | - | - |
| 1788042004 | 26.67° C | 62% | 1012.9 hPa | 0 mm | - | - | - |
| 1788041704 | 26.67° C | 60% | 1012.8 hPa | 0 mm | - | - | - |
| 1788041404 | 27.22° C | 59% | 1012.9 hPa | 0 mm | - | - | - |
| 1788041104 | 26.67° C | 61% | 1012.7 hPa | 0 mm | - | - | - |
| 1788040804 | 26.67° C | 62% | 1012.6 hPa | 0 mm | - | - | - |
| 1788040504 | 26.67° C | 63% | 1012.5 hPa | 0 mm | - | - | - |
| 1788040204 | 27.22° C | 63% | 1012.5 hPa | 0 mm | - | - | - |
| 1788039904 | 27.22° C | 63% | 1012.4 hPa | 0 mm | - | - | - |
| 1788039604 | 27.22° C | 61% | 1012.4 hPa | 0 mm | - | - | - |
| 1788039304 | 27.22° C | 62% | 1012.4 hPa | 0 mm | - | - | - |
| 1788039004 | 27.22° C | 63% | 1012.4 hPa | 0 mm | - | - | - |
| 1788038704 | 27.78° C | 61% | 1012.5 hPa | 0 mm | - | - | - |
| 1788038404 | 27.78° C | 62% | 1012.5 hPa | 0 mm | - | - | - |
| 1788038104 | 27.22° C | 64% | 1012.4 hPa | 0 mm | - | - | - |
| 1788037804 | 27.78° C | 65% | 1012.3 hPa | 0 mm | - | - | - |
| 1788037504 | 27.78° C | 64% | 1012.4 hPa | 0 mm | - | - | - |
| 1788037204 | 28.33° C | 64% | 1012.3 hPa | 0 mm | - | - | - |
| 1788036904 | 28.33° C | 65% | 1012.5 hPa | 0 mm | - | - | - |
| 1788036604 | 28.33° C | 63% | 1012.4 hPa | 0 mm | - | - | - |
| 1788036304 | 28.89° C | 60% | 1012.4 hPa | 0 mm | - | - | - |
* Rain since midnight (hover to see other rain measurements)
** Current wind speed in m/s (hover to see current wind gust speed)